NORTHERN QUEENS  -  Air Quality Alert Air Quality Alert        SOUTHERN QUEENS  -  Air Quality Alert Air Quality Alert      

Active alerts

Northern Queens
  Details for Northern Queens Air Quality Alert
Southern Queens
  Details for Southern Queens Air Quality Alert


WXM80 ListenWXM80 Stop

You find our weather info also at:

UK Metoffice

WeatherCloud

Weather Underground

Northeastern Weather Network

AWEKAS

Citizen Weather Observer Program (CWOP)

HAMweather, WeatherForYou, PWS Weather


Weather Underground History page Text

Daily Summary for October 31, 2017 Units:  Metric    English   Both
« Previous Day
Next Day »
Daily Weekly Monthly Yearly Custom
  High: Low: Average:
Temperature: 15.1 °C 7.6 °C 10.9 °C
Dew Point: 6.2 °C 1.5 °C 3.9 °C
Humidity: 83 % 45 % 63 %
Wind Speed: 17.7 km/h 0 km/h 5.3 km/h
Wind Gust: 33.3 km/h - -
Wind:- - WSW
Pressure: 1025.3 hPa 1012.1 hPa -
Precipitation: 3.05 mm    
Historical Graphs
 
 
Tabular Data for October 31, 2017
Time Temperature Dew Point Pressure Wind Wind Speed Wind Gust Humidity Rainfall Rate (Hourly)
00:01 10.6 °C 4.4 °C 1012.1 hPa SW 8.9 km/h 16.7 km/h 66 % 0.25 mm
00:06 10.6 °C 4.2 °C 1012.1 hPa SSW 6.6 km/h 14.8 km/h 65 % 0.25 mm
00:11 10.6 °C 4.2 °C 1012.4 hPa South 2.7 km/h 18.5 km/h 65 % 0.25 mm
00:16 10.6 °C 4.1 °C 1012.4 hPa SSW 11.6 km/h 16.7 km/h 64 % 0.25 mm
00:21 10.7 °C 4.3 °C 1012.4 hPa SW 10.9 km/h 14.8 km/h 65 % 0.25 mm
00:27 10.7 °C 4.4 °C 1012.4 hPa SW 8.5 km/h 22.2 km/h 65 % 0.25 mm
00:32 10.8 °C 4.4 °C 1012.8 hPa SSW 11.6 km/h 14.5 km/h 65 % 0.25 mm
00:37 10.8 °C 4.5 °C 1012.8 hPa WSW 7.9 km/h 18.5 km/h 65 % 0.25 mm
00:42 10.9 °C 4.6 °C 1012.8 hPa West 1 km/h 3.7 km/h 65 % 0.25 mm
00:47 10.9 °C 4.6 °C 1012.4 hPa South 8.9 km/h 18.5 km/h 65 % 0.25 mm
00:52 10.9 °C 4.6 °C 1012.8 hPa SSW 10.3 km/h 22.2 km/h 65 % 0.25 mm
00:57 10.9 °C 4.8 °C 1012.4 hPa SSW 7.9 km/h 12.9 km/h 66 % 0.25 mm
01:02 11 °C 4.9 °C 1012.8 hPa SW 5.6 km/h 14.8 km/h 66 % 0.25 mm
01:03 10.9 °C 4.8 °C 1012.4 hPa SSW 7.9 km/h 18.5 km/h 66 % 0.25 mm
01:08 10.9 °C 4.8 °C 1012.8 hPa SW 6.1 km/h 14.8 km/h 66 % 0.25 mm
01:13 10.9 °C 5.1 °C 1012.4 hPa SSW 3.2 km/h 13 km/h 67 % 0 mm
01:18 10.9 °C 5.1 °C 1012.8 hPa WSW 4.7 km/h 12.9 km/h 67 % 0 mm
01:23 10.9 °C 5.2 °C 1012.4 hPa South 8.7 km/h 17.7 km/h 68 % 0 mm
01:28 10.8 °C 5.2 °C 1012.4 hPa SSW 6.6 km/h 9.7 km/h 68 % 0.25 mm
01:33 10.8 °C 5.2 °C 1012.8 hPa SSW 2.3 km/h 5.6 km/h 68 % 0.25 mm
01:38 10.8 °C 5.4 °C 1012.8 hPa SE 4 km/h 9.3 km/h 69 % 0.25 mm
01:43 10.8 °C 5.5 °C 1012.8 hPa West 5.1 km/h 12.9 km/h 70 % 0.25 mm
01:48 10.8 °C 5.5 °C 1012.8 hPa WSW 2.6 km/h 11.1 km/h 70 % 0.25 mm
01:53 10.7 °C 5.4 °C 1013.1 hPa WNW 1 km/h 5.6 km/h 70 % 0.25 mm
01:58 10.7 °C 5.7 °C 1013.1 hPa SSW 5.1 km/h 5.6 km/h 71 % 0.25 mm
02:03 10.7 °C 5.6 °C 1013.1 hPa SSW 2.7 km/h 14.8 km/h 71 % 0.25 mm
02:14 10.6 °C 5.8 °C 1013.4 hPa SW 3.1 km/h 11.1 km/h 72 % 0.25 mm
02:19 10.6 °C 5.7 °C 1013.4 hPa SSW 5.6 km/h 11.1 km/h 72 % 0.25 mm
02:24 10.5 °C 5.7 °C 1013.4 hPa SW 3.2 km/h 11.1 km/h 72 % 0.25 mm
02:29 10.4 °C 5.6 °C 1013.8 hPa SSW 9.5 km/h 18.5 km/h 72 % 0 mm
02:34 10.4 °C 5.6 °C 1013.8 hPa SW 7.4 km/h 13 km/h 72 % 0 mm
02:39 10.4 °C 5.8 °C 1013.8 hPa SSW 5.3 km/h 8 km/h 73 % 0.25 mm
02:44 10.4 °C 5.8 °C 1013.8 hPa WSW 7.2 km/h 16.7 km/h 73 % 0.25 mm
02:49 10.4 °C 5.8 °C 1013.8 hPa SW 5 km/h 9.7 km/h 73 % 0.25 mm
02:54 10.3 °C 5.7 °C 1013.8 hPa WSW 5.8 km/h 11.3 km/h 73 % 0.25 mm
02:59 10.3 °C 5.9 °C 1013.8 hPa SSW 6.1 km/h 14.8 km/h 74 % 0.25 mm
03:04 10.3 °C 5.8 °C 1013.8 hPa West 6.3 km/h 11.1 km/h 74 % 0.25 mm
03:19 10.2 °C 6 °C 1014.1 hPa SSW 6.6 km/h 9.3 km/h 75 % 0.25 mm
03:24 10.2 °C 6.1 °C 1014.1 hPa West 2.7 km/h 11.1 km/h 76 % 0.25 mm
03:30 10.1 °C 6.1 °C 1014.1 hPa SSW 4 km/h 7.4 km/h 76 % 0.25 mm
03:35 10.1 °C 6 °C 1014.1 hPa West 5 km/h 13 km/h 76 % 0.25 mm
03:40 10 °C 5.9 °C 1014.1 hPa WSW 6.3 km/h 16.7 km/h 76 % 0 mm
03:45 9.9 °C 5.9 °C 1014.1 hPa WSW 6.9 km/h 14.8 km/h 76 % 0 mm
03:50 9.9 °C 5.9 °C 1014.4 hPa West 7.6 km/h 13 km/h 76 % 0 mm
03:55 9.9 °C 5.9 °C 1014.4 hPa SW 6.3 km/h 14.5 km/h 76 % 0 mm
04:00 9.9 °C 6.1 °C 1014.4 hPa SSW 10 km/h 18.5 km/h 77 % 0 mm
04:05 9.9 °C 6.1 °C 1014.4 hPa SW 2.9 km/h 13 km/h 77 % 0.25 mm
04:10 9.9 °C 6.1 °C 1014.4 hPa SW 10 km/h 18.5 km/h 77 % 0.25 mm
04:15 9.9 °C 6.2 °C 1014.8 hPa SSW 6.6 km/h 11.1 km/h 78 % 0.25 mm
04:20 9.9 °C 6.1 °C 1014.8 hPa SW 3.1 km/h 9.3 km/h 77 % 0.25 mm
04:25 9.9 °C 6.1 °C 1014.8 hPa West 5.1 km/h 8 km/h 77 % 0.25 mm
04:30 9.9 °C 6.1 °C 1014.8 hPa WSW 4.7 km/h 11.3 km/h 77 % 0.25 mm
04:35 9.9 °C 6.1 °C 1014.8 hPa West 5.5 km/h 9.3 km/h 77 % 0.25 mm
04:40 9.9 °C 6.1 °C 1014.8 hPa SW 2.3 km/h 7.4 km/h 77 % 0.25 mm
04:46 9.9 °C 6.1 °C 1014.8 hPa SW 3.2 km/h 9.7 km/h 77 % 0 mm
04:51 9.9 °C 6.1 °C 1014.8 hPa SW 4.8 km/h 11.3 km/h 77 % 0 mm
04:56 9.9 °C 5.8 °C 1014.8 hPa SW 4.8 km/h 11.3 km/h 76 % 0 mm
05:01 9.8 °C 5.8 °C 1014.8 hPa SW 4.8 km/h 12.9 km/h 76 % 0.25 mm
05:06 9.8 °C 5.7 °C 1014.8 hPa SW 3.2 km/h 12.9 km/h 76 % 0 mm
05:11 9.8 °C 5.7 °C 1015.1 hPa SSW 4.2 km/h 14.8 km/h 76 % 0 mm
05:16 9.7 °C 5.7 °C 1015.1 hPa SW 3.2 km/h 8 km/h 76 % 0 mm
05:21 9.7 °C 5.6 °C 1015.1 hPa SW 3.2 km/h 9.7 km/h 76 % 0 mm
05:26 9.6 °C 5.8 °C 1015.1 hPa WSW 1.6 km/h 9.7 km/h 77 % 0 mm
05:31 9.6 °C 5.7 °C 1015.1 hPa West 1.6 km/h 9.7 km/h 77 % 0 mm
05:36 9.6 °C 5.7 °C 1015.5 hPa SW 3.1 km/h 3.7 km/h 77 % 0.25 mm
05:41 9.5 °C 5.7 °C 1015.5 hPa Calm   4.8 km/h 77 % 0 mm
05:46 9.4 °C 5.6 °C 1015.5 hPa SW 3.2 km/h 9.7 km/h 77 % 0 mm
05:51 9.4 °C 5.6 °C 1015.5 hPa SW 3.2 km/h 12.9 km/h 77 % 0 mm
05:56 9.3 °C 5.5 °C 1015.5 hPa SW 4.8 km/h 9.7 km/h 77 % 0 mm
06:01 9.3 °C 5.5 °C 1015.5 hPa SSW 4.5 km/h 8 km/h 77 % 0.25 mm
06:11 9.3 °C 5.6 °C 1015.5 hPa SW 0.2 km/h 1.9 km/h 78 % 0.25 mm
06:16 9.2 °C 5.6 °C 1015.5 hPa SW 2.6 km/h 5.6 km/h 78 % 0.25 mm
06:21 9.2 °C 5.6 °C 1015.5 hPa Calm   1.6 km/h 78 % 0.25 mm
06:26 9.1 °C 5.5 °C 1015.8 hPa WSW 1.8 km/h 3.7 km/h 78 % 0 mm
06:31 9 °C 5.6 °C 1015.5 hPa WSW 0.3 km/h 3.2 km/h 79 % 0 mm
06:36 8.9 °C 5.5 °C 1015.8 hPa Calm     79 % 0 mm
06:41 8.8 °C 5.4 °C 1015.8 hPa Calm   5.6 km/h 79 % 0 mm
06:46 8.8 °C 5.5 °C 1015.8 hPa SW 0.2 km/h 3.2 km/h 80 % 0 mm
06:51 8.7 °C 5.4 °C 1015.8 hPa WSW 1.8 km/h 5.6 km/h 80 % 0 mm
06:56 8.6 °C 5.3 °C 1015.8 hPa WSW 1.4 km/h 1.9 km/h 80 % 0 mm
07:01 8.6 °C 5.3 °C 1015.8 hPa WSW 1.4 km/h 5.6 km/h 80 % 0 mm
07:06 8.5 °C 5.4 °C 1016.1 hPa Calm   1.6 km/h 81 % 0.25 mm
07:11 8.4 °C 5.4 °C 1016.1 hPa Calm   1.9 km/h 81 % 0.25 mm
07:17 8.4 °C 5.5 °C 1016.1 hPa SW 0.8 km/h 3.7 km/h 82 % 0.25 mm
07:22 8.3 °C 5.4 °C 1016.5 hPa Calm     82 % 0.25 mm
07:27 8.3 °C 5.4 °C 1016.5 hPa Calm     82 % 0.25 mm
07:32 8.2 °C 5.3 °C 1016.5 hPa Calm     82 % 0.25 mm
07:37 8.2 °C 5.3 °C 1016.5 hPa SW 2.3 km/h 3.7 km/h 82 % 0.25 mm
07:42 8.1 °C 5.2 °C 1016.8 hPa Calm   1.9 km/h 82 % 0.25 mm
07:47 8 °C 5.1 °C 1016.8 hPa Calm   1.9 km/h 82 % 0.25 mm
07:52 7.9 °C 5.2 °C 1016.8 hPa West 3.7 km/h 6.4 km/h 83 % 0.25 mm
07:57 7.9 °C 5.2 °C 1016.8 hPa WSW 2.9 km/h 5.6 km/h 83 % 0.25 mm
08:02 7.9 °C 5.2 °C 1017.2 hPa WSW 2.9 km/h 5.6 km/h 83 % 0.25 mm
08:07 7.9 °C 5.2 °C 1016.8 hPa WSW 0.3 km/h 3.2 km/h 83 % 0 mm
08:12 7.9 °C 5.2 °C 1017.2 hPa WNW 0.3 km/h 5.6 km/h 83 % 0 mm
08:17 8.1 °C 5.3 °C 1017.2 hPa WSW 5.6 km/h 14.8 km/h 83 % 0 mm
08:22 8.2 °C 4.9 °C 1017.2 hPa WSW 3.7 km/h 13 km/h 80 % 0 mm
08:27 8.3 °C 4.7 °C 1017.2 hPa West 1.1 km/h 9.3 km/h 78 % 0 mm
08:33 8.6 °C 4.8 °C 1017.5 hPa West 7.1 km/h 18.5 km/h 77 % 0 mm
08:38 8.8 °C 4.8 °C 1017.5 hPa SW 3.2 km/h 11.1 km/h 76 % 0 mm
08:43 9.1 °C 5.1 °C 1017.5 hPa WSW 3.2 km/h 11.1 km/h 76 % 0.25 mm
08:48 9.2 °C 5.2 °C 1017.5 hPa WSW 7.6 km/h 11.1 km/h 76 % 0.25 mm
08:53 9.4 °C 5.4 °C 1017.5 hPa SW 9.2 km/h 14.8 km/h 76 % 0.25 mm
08:58 9.6 °C 4.9 °C 1017.5 hPa SSW 7.1 km/h 11.1 km/h 73 % 0.25 mm
09:03 9.7 °C 5.1 °C 1017.5 hPa SW 3.9 km/h 9.3 km/h 73 % 0.25 mm
09:08 9.8 °C 5.4 °C 1017.5 hPa West 6.1 km/h 9.3 km/h 74 % 0.25 mm
09:13 9.9 °C 5.1 °C 1017.8 hPa SW 5.6 km/h 9.3 km/h 72 % 0.25 mm
09:18 10.1 °C 5.1 °C 1017.8 hPa SSW 7.1 km/h 12.9 km/h 71 % 0.25 mm
09:23 10.2 °C 5.2 °C 1017.8 hPa SSW 7.1 km/h 13 km/h 71 % 0.25 mm
09:28 10.3 °C 5.1 °C 1017.8 hPa SW 6.8 km/h 8 km/h 70 % 0.25 mm
09:33 10.7 °C 5.2 °C 1017.8 hPa SW 5.3 km/h 11.1 km/h 69 % 0.25 mm
09:38 11 °C 5.1 °C 1017.8 hPa SW 5.8 km/h 11.1 km/h 67 % 0.25 mm
09:43 11.4 °C 5.3 °C 1017.8 hPa WSW 7.7 km/h 13 km/h 66 % 0 mm
09:49 11.6 °C 5 °C 1017.8 hPa SSW 7.2 km/h 11.1 km/h 64 % 0 mm
09:54 11.8 °C 5 °C 1017.8 hPa SW 5.3 km/h 13 km/h 63 % 0 mm
09:59 11.9 °C 5.1 °C 1017.8 hPa WSW 9.3 km/h 13 km/h 63 % 0 mm
10:04 12 °C 5.2 °C 1017.8 hPa West 4 km/h 7.4 km/h 63 % 0 mm
10:09 11.9 °C 4.4 °C 1017.8 hPa West 3.4 km/h 11.1 km/h 60 % 0 mm
10:14 12.1 °C 4.8 °C 1017.8 hPa West 5.5 km/h 11.1 km/h 61 % 0 mm
10:19 12.2 °C 4.4 °C 1017.8 hPa WNW 12.4 km/h 20.4 km/h 59 % 0 mm
10:24 12.2 °C 4.4 °C 1017.8 hPa WNW 6.4 km/h 16.1 km/h 59 % 0 mm
10:29 12.2 °C 3.9 °C 1017.8 hPa WSW 11.6 km/h 18.5 km/h 57 % 0 mm
10:34 12.2 °C 4.2 °C 1017.8 hPa WNW 14.8 km/h 27.8 km/h 58 % 0 mm
10:39 12.2 °C 3.7 °C 1018.2 hPa WNW 5.5 km/h 16.7 km/h 56 % 0 mm
10:44 12.3 °C 4.3 °C 1018.2 hPa SSW 10.8 km/h 24.1 km/h 58 % 0.25 mm
10:49 12.4 °C 4.4 °C 1018.2 hPa SW 7.9 km/h 18.5 km/h 58 % 0.25 mm
10:54 12.6 °C 4.3 °C 1018.2 hPa WSW 12.1 km/h 33.3 km/h 57 % 0.25 mm
10:59 12.8 °C 4.4 °C 1017.8 hPa SW 6.4 km/h 11.1 km/h 57 % 0.25 mm
11:05 12.8 °C 3.5 °C 1017.8 hPa WNW 13.7 km/h 25.9 km/h 53 % 0.25 mm
11:10 12.8 °C 2.6 °C 1018.2 hPa WSW 7.6 km/h 24.1 km/h 50 % 0.25 mm
11:15 12.9 °C 3.6 °C 1018.2 hPa SSW 9.5 km/h 16.7 km/h 53 % 0.25 mm
11:20 12.9 °C 3.1 °C 1018.2 hPa West 7.4 km/h 20.4 km/h 51 % 0.25 mm
11:25 12.9 °C 2.8 °C 1018.2 hPa West 17.7 km/h 27.8 km/h 50 % 0.25 mm
11:30 12.9 °C 3 °C 1017.5 hPa SSW 9 km/h 20.4 km/h 51 % 0.51 mm
11:35 12.8 °C 3.5 °C 1018.2 hPa WNW 6.4 km/h 12.9 km/h 53 % 0.51 mm
11:40 12.8 °C 3.2 °C 1018.2 hPa SW 8.7 km/h 14.8 km/h 52 % 0.51 mm
11:45 12.9 °C 3.6 °C 1017.8 hPa WNW 10.8 km/h 20.4 km/h 53 % 0.25 mm
11:50 13.1 °C 3.2 °C 1018.2 hPa WSW 12.1 km/h 24.1 km/h 51 % 0.25 mm
11:55 13.2 °C 3 °C 1018.2 hPa WSW 13.8 km/h 25.9 km/h 50 % 0.25 mm
12:00 13.3 °C 2.8 °C 1017.2 hPa SW 14.5 km/h 20.4 km/h 49 % 0.25 mm
12:05 13.3 °C 3.7 °C 1017.8 hPa WSW 11.1 km/h 20.4 km/h 52 % 0.25 mm
12:10 13.5 °C 4.1 °C 1018.2 hPa NNW 8 km/h 9.3 km/h 53 % 0.25 mm
12:15 13.6 °C 3.4 °C 1018.2 hPa SSW 9.7 km/h 18.5 km/h 50 % 0.51 mm
12:20 13.7 °C 3.7 °C 1017.8 hPa WSW 9.5 km/h 20.9 km/h 51 % 0.51 mm
12:22 13.7 °C 4 °C 1017.8 hPa SW 9.7 km/h 20.4 km/h 52 % 0.51 mm
12:27 13.6 °C 3.7 °C 1017.8 hPa WNW 9 km/h 22.2 km/h 51 % 0.51 mm
12:32 13.6 °C 3.9 °C 1017.8 hPa WSW 8.4 km/h 14.8 km/h 52 % 0.25 mm
12:37 13.5 °C 4.1 °C 1017.8 hPa WSW 12.1 km/h 25.9 km/h 53 % 0.25 mm
12:42 13.6 °C 4.2 °C 1017.8 hPa WSW 8.7 km/h 18.5 km/h 53 % 0.25 mm
12:47 13.6 °C 3.9 °C 1017.8 hPa SW 7.6 km/h 11.3 km/h 52 % 0.25 mm
12:52 13.7 °C 3.8 °C 1017.8 hPa SW 8.2 km/h 14.8 km/h 51 % 0.25 mm
12:57 13.8 °C 3.6 °C 1017.8 hPa WSW 6.1 km/h 11.3 km/h 50 % 0.51 mm
13:02 13.8 °C 3.2 °C 1017.8 hPa WNW 12.2 km/h 22.5 km/h 49 % 0.51 mm
13:07 13.7 °C 3.1 °C 1017.8 hPa WNW 6.9 km/h 24.1 km/h 49 % 0.51 mm
13:12 13.6 °C 3.3 °C 1017.8 hPa WNW 14 km/h 18.5 km/h 50 % 0.51 mm
13:18 13.5 °C 3 °C 1017.5 hPa West 8.7 km/h 20.4 km/h 49 % 0.25 mm
13:23 13.4 °C 3.5 °C 1017.8 hPa WNW 11.3 km/h 29.6 km/h 51 % 0.25 mm
13:28 13.4 °C 3.8 °C 1017.5 hPa WNW 3.1 km/h 14.8 km/h 52 % 0.25 mm
13:33 13.5 °C 3.3 °C 1017.5 hPa West 11.9 km/h 14.8 km/h 50 % 0.25 mm
13:38 13.6 °C 3.3 °C 1017.8 hPa SW 10.1 km/h 18.5 km/h 50 % 0.25 mm
13:43 13.8 °C 3.2 °C 1017.8 hPa NW 9.2 km/h 27.8 km/h 49 % 0.25 mm
13:48 13.9 °C 3.7 °C 1017.8 hPa West 9.5 km/h 24.1 km/h 50 % 0.25 mm
13:53 14.2 °C 3.6 °C 1017.8 hPa WSW 11.6 km/h 22.2 km/h 49 % 0.25 mm
13:58 14.4 °C 3.5 °C 1017.8 hPa WSW 5.8 km/h 16.7 km/h 48 % 0 mm
14:03 14.6 °C 3.7 °C 1017.8 hPa West 9.3 km/h 13 km/h 48 % 0 mm
14:08 14.8 °C 3.6 °C 1018.2 hPa WNW 8.7 km/h 18.5 km/h 47 % 0 mm
14:13 14.9 °C 3.7 °C 1018.2 hPa West 13 km/h 18.5 km/h 47 % 0 mm
14:18 15 °C 3.8 °C 1018.2 hPa SW 15.9 km/h 22.2 km/h 47 % 0 mm
14:23 15.1 °C 3.5 °C 1018.2 hPa SSW 9.7 km/h 20.4 km/h 46 % 0 mm
14:28 15.1 °C 3.5 °C 1018.2 hPa WSW 15.1 km/h 16.7 km/h 46 % 0 mm
14:34 15.1 °C 3.8 °C 1018.2 hPa WSW 5.5 km/h 20.4 km/h 47 % 0 mm
14:39 15.1 °C 3.2 °C 1018.2 hPa SSW 12.9 km/h 18.5 km/h 45 % 0 mm
14:44 15.1 °C 3.6 °C 1018.2 hPa WSW 9 km/h 18.5 km/h 46 % 0 mm
14:49 15.1 °C 3.5 °C 1018.2 hPa NW 10.9 km/h 18.5 km/h 46 % 0 mm
14:54 15.1 °C 3.8 °C 1018.2 hPa West 11.7 km/h 18.5 km/h 47 % 0 mm
14:59 15 °C 3.8 °C 1018.2 hPa SW 10.5 km/h 18.5 km/h 47 % 0 mm
15:04 14.9 °C 3.7 °C 1018.2 hPa SW 12.1 km/h 20.4 km/h 47 % 0 mm
15:09 14.8 °C 3.6 °C 1018.2 hPa WNW 5.8 km/h 18.5 km/h 47 % 0 mm
15:14 14.7 °C 3.8 °C 1018.2 hPa WSW 8.7 km/h 9.7 km/h 48 % 0 mm
15:19 14.6 °C 3.1 °C 1018.5 hPa SW 3.2 km/h 13 km/h 46 % 0 mm
15:24 14.5 °C 3 °C 1018.5 hPa WSW 6.8 km/h 16.7 km/h 46 % 0 mm
15:29 14.4 °C 3.3 °C 1018.2 hPa SSW 5.1 km/h 11.3 km/h 47 % 0 mm
15:34 14.3 °C 3.4 °C 1018.5 hPa WNW 7.6 km/h 13 km/h 48 % 0 mm
15:39 14.2 °C 3.1 °C 1018.5 hPa West 10.8 km/h 14.5 km/h 47 % 0 mm
15:44 14.1 °C 2.7 °C 1018.5 hPa WSW 8.5 km/h 18.5 km/h 46 % 0 mm
15:49 14 °C 2.6 °C 1018.5 hPa SW 7.4 km/h 25.9 km/h 46 % 0 mm
15:55 13.9 °C 2.8 °C 1018.8 hPa West 7.2 km/h 11.3 km/h 47 % 0 mm
16:00 13.8 °C 2.7 °C 1018.5 hPa SSW 8.4 km/h 18.5 km/h 47 % 0 mm
16:05 13.8 °C 2.7 °C 1018.8 hPa SW 5.6 km/h 14.8 km/h 47 % 0 mm
16:10 13.7 °C 2.3 °C 1018.8 hPa West 9 km/h 18.5 km/h 46 % 0 mm
16:15 13.7 °C 2.6 °C 1018.8 hPa NW 2.6 km/h 7.4 km/h 47 % 0 mm
16:20 13.6 °C 2.5 °C 1018.8 hPa WSW 5.3 km/h 11.1 km/h 47 % 0 mm
16:25 13.5 °C 1.8 °C 1018.8 hPa SW 8.5 km/h 20.4 km/h 45 % 0 mm
16:30 13.4 °C 2.1 °C 1018.8 hPa WNW 1 km/h 14.8 km/h 46 % 0 mm
16:35 13.4 °C 2.7 °C 1019.2 hPa SW 9.2 km/h 16.7 km/h 48 % 0 mm
16:40 13.4 °C 2.6 °C 1019.2 hPa WNW 7.1 km/h 12.9 km/h 48 % 0 mm
16:45 13.3 °C 1.9 °C 1019.2 hPa WSW 8.9 km/h 24.1 km/h 46 % 0 mm
16:50 13.2 °C 2.2 °C 1019.2 hPa South 8 km/h 11.1 km/h 47 % 0 mm
16:55 13.2 °C 2.1 °C 1019.2 hPa SW 5.5 km/h 13 km/h 47 % 0 mm
17:00 13.1 °C 2.1 °C 1019.5 hPa WSW 2.1 km/h 9.3 km/h 47 % 0 mm
17:05 13.1 °C 2 °C 1019.5 hPa WNW 7.7 km/h 13 km/h 47 % 0 mm
17:11 13 °C 2.2 °C 1019.5 hPa SW 10.3 km/h 14.5 km/h 48 % 0 mm
17:16 12.9 °C 2.2 °C 1019.5 hPa WSW 4.8 km/h 16.1 km/h 48 % 0 mm
17:21 12.8 °C 2.4 °C 1019.5 hPa WSW 6.1 km/h 8 km/h 49 % 0 mm
17:26 12.7 °C 2 °C 1019.9 hPa WSW 3.2 km/h 24.1 km/h 48 % 0 mm
17:31 12.7 °C 1.9 °C 1019.9 hPa West 8 km/h 19.3 km/h 48 % 0 mm
17:36 12.6 °C 1.6 °C 1019.9 hPa West 9.7 km/h 20.9 km/h 47 % 0 mm
17:41 12.5 °C 1.5 °C 1020.2 hPa West 4.8 km/h 19.3 km/h 47 % 0 mm
17:46 12.5 °C 2.1 °C 1020.2 hPa West 3.2 km/h 11.3 km/h 49 % 0 mm
17:51 12.4 °C 1.7 °C 1020.2 hPa West 3.2 km/h 12.9 km/h 48 % 0 mm
17:56 12.4 °C 2.2 °C 1020.2 hPa WSW 4.8 km/h 11.3 km/h 50 % 0 mm
18:01 12.3 °C 2.2 °C 1020.5 hPa WSW 2.7 km/h 5.6 km/h 50 % 0 mm
18:06 12.2 °C 2.1 °C 1020.5 hPa Calm   11.3 km/h 50 % 0 mm
18:11 12.2 °C 2.1 °C 1020.5 hPa Calm   4.8 km/h 50 % 0 mm
18:16 12.1 °C 2.5 °C 1020.9 hPa WSW 3.2 km/h 9.7 km/h 52 % 0 mm
18:21 11.9 °C 2.7 °C 1020.9 hPa WSW 1.6 km/h 4.8 km/h 53 % 0 mm
18:26 11.9 °C 2.6 °C 1020.9 hPa SW 3.5 km/h 5.6 km/h 53 % 0 mm
18:31 11.7 °C 2.4 °C 1021.2 hPa Calm   4.8 km/h 53 % 0 mm
18:36 11.6 °C 2.3 °C 1021.2 hPa Calm   3.2 km/h 53 % 0 mm
18:41 11.4 °C 2.2 °C 1021.2 hPa Calm   3.7 km/h 53 % 0 mm
18:46 11.3 °C 2.3 °C 1021.2 hPa SW 1.6 km/h 4.8 km/h 54 % 0 mm
18:51 11.2 °C 2.2 °C 1021.2 hPa SW 1.6 km/h 6.4 km/h 54 % 0 mm
18:56 11.1 °C 2.3 °C 1021.2 hPa SW 1.6 km/h 6.4 km/h 55 % 0 mm
19:01 10.9 °C 2.4 °C 1021.2 hPa Calm   1.9 km/h 56 % 0 mm
19:06 10.8 °C 2.3 °C 1021.6 hPa SW 1.1 km/h 3.7 km/h 56 % 0 mm
19:11 10.6 °C 2.2 °C 1021.6 hPa West 1 km/h 3.7 km/h 56 % 0 mm
19:16 10.5 °C 2.6 °C 1021.6 hPa Calm   1.9 km/h 58 % 0 mm
19:21 10.3 °C 2.4 °C 1021.6 hPa Calm   1.9 km/h 58 % 0 mm
19:26 10.3 °C 2.6 °C 1021.6 hPa WSW 1.3 km/h 5.6 km/h 59 % 0 mm
19:31 10.2 °C 2.5 °C 1021.9 hPa WSW 0.2 km/h 1.9 km/h 59 % 0 mm
19:36 10.1 °C 2.6 °C 1021.9 hPa Calm     60 % 0 mm
19:41 9.9 °C 2.5 °C 1021.9 hPa SW 2.9 km/h 3.7 km/h 60 % 0 mm
19:46 9.8 °C 2.4 °C 1021.9 hPa SW 2.1 km/h 5.6 km/h 60 % 0 mm
19:51 9.7 °C 2.5 °C 1021.9 hPa SW 1.9 km/h 5.6 km/h 61 % 0 mm
19:56 9.6 °C 2.4 °C 1022.2 hPa Calm     61 % 0 mm
20:01 9.4 °C 2.5 °C 1022.2 hPa Calm   1.9 km/h 62 % 0 mm
20:07 9.3 °C 2.8 °C 1021.9 hPa Calm     64 % 0 mm
20:12 9.2 °C 2.5 °C 1022.2 hPa SW 0.3 km/h 1.9 km/h 63 % 0 mm
20:17 9 °C 2.6 °C 1022.2 hPa SW 1.8 km/h 3.7 km/h 64 % 0 mm
20:22 8.9 °C 2.4 °C 1022.2 hPa Calm     64 % 0 mm
20:27 8.8 °C 2.3 °C 1022.2 hPa SW 0.8 km/h 1.9 km/h 64 % 0 mm
20:32 8.7 °C 2.2 °C 1022.6 hPa Calm     64 % 0 mm
20:37 8.6 °C 2.3 °C 1022.6 hPa SW 2.6 km/h 5.6 km/h 65 % 0 mm
20:42 8.4 °C 2.2 °C 1022.6 hPa SW 0.2 km/h 3.7 km/h 65 % 0 mm
20:47 8.3 °C 2.3 °C 1022.9 hPa SW 1.6 km/h 3.7 km/h 66 % 0 mm
20:52 8.3 °C 2.5 °C 1022.9 hPa SW 0.3 km/h 5.6 km/h 67 % 0 mm
20:57 8.2 °C 2.6 °C 1022.9 hPa SW 1.1 km/h 4.8 km/h 68 % 0 mm
21:02 8.2 °C 2.6 °C 1023.2 hPa SW 0.5 km/h 1.9 km/h 68 % 0 mm
21:07 8.1 °C 2.5 °C 1023.2 hPa SW 0.5 km/h 3.7 km/h 68 % 0 mm
21:12 8.1 °C 2.7 °C 1023.2 hPa SW 2.7 km/h 5.6 km/h 69 % 0 mm
21:17 8 °C 2.8 °C 1023.2 hPa SW 1.4 km/h 3.7 km/h 70 % 0 mm
21:22 7.9 °C 2.6 °C 1023.2 hPa SW 0.6 km/h 3.7 km/h 69 % 0.25 mm
21:28 7.8 °C 2.7 °C 1023.6 hPa WSW 0.3 km/h 1.9 km/h 70 % 0.25 mm
21:33 7.8 °C 2.4 °C 1023.6 hPa WSW 1.4 km/h 5.6 km/h 69 % 0.25 mm
21:38 7.7 °C 2.6 °C 1023.6 hPa WSW 0.3 km/h 3.7 km/h 70 % 0.25 mm
21:43 7.7 °C 2.6 °C 1023.6 hPa WSW 3.1 km/h 5.6 km/h 70 % 0.25 mm
21:48 7.7 °C 2.6 °C 1023.9 hPa WSW 1.6 km/h 5.6 km/h 70 % 0.25 mm
21:49 7.7 °C 2.6 °C 1023.9 hPa Calm   1.9 km/h 70 % 0.25 mm
21:54 7.6 °C 2.5 °C 1023.9 hPa WSW 2.6 km/h 3.7 km/h 70 % 0.25 mm
21:59 7.6 °C 2.4 °C 1023.9 hPa WSW 0.8 km/h 1.9 km/h 70 % 0.25 mm
22:05 7.6 °C 2.6 °C 1023.9 hPa WSW 2.1 km/h 5.6 km/h 71 % 0.25 mm
22:10 7.6 °C 2.7 °C 1024.3 hPa WSW 0.8 km/h 3.7 km/h 71 % 0.25 mm
22:15 7.6 °C 2.9 °C 1024.3 hPa WNW 1.9 km/h 5.6 km/h 72 % 0.25 mm
22:20 7.6 °C 2.6 °C 1024.3 hPa NW 3.5 km/h 9.3 km/h 71 % 0 mm
22:25 7.7 °C 2.3 °C 1024.3 hPa West 6.4 km/h 14.8 km/h 69 % 0 mm
22:30 7.8 °C 2.1 °C 1024.6 hPa WSW 5 km/h 11.1 km/h 67 % 0 mm
22:35 8.1 °C 2.1 °C 1024.6 hPa SW 5.3 km/h 9.3 km/h 66 % 0 mm
22:40 8.3 °C 2.3 °C 1024.9 hPa WNW 1.4 km/h 4.8 km/h 66 % 0 mm
22:45 8.4 °C 2.2 °C 1024.6 hPa West 5.3 km/h 9.3 km/h 65 % 0 mm
22:50 8.7 °C 2.4 °C 1024.6 hPa West 6.4 km/h 13 km/h 65 % 0 mm
22:55 8.8 °C 2.3 °C 1024.6 hPa West 9.2 km/h 18.5 km/h 64 % 0 mm
23:00 8.9 °C 2.2 °C 1024.9 hPa WSW 5.5 km/h 9.3 km/h 63 % 0 mm
23:05 9 °C 2.3 °C 1024.6 hPa WSW 8 km/h 13 km/h 63 % 0 mm
23:10 9.1 °C 2.4 °C 1024.6 hPa West 6.3 km/h 13 km/h 63 % 0 mm
23:16 9.2 °C 2.3 °C 1024.9 hPa WSW 2.7 km/h 13 km/h 62 % 0 mm
23:21 9.2 °C 2.5 °C 1024.9 hPa WSW 0.3 km/h 3.7 km/h 63 % 0 mm
23:23 9.2 °C 2.5 °C 1024.9 hPa SW 4 km/h 7.4 km/h 63 % 0 mm
23:27 9.2 °C 2.5 °C 1024.9 hPa West 5.5 km/h 7.4 km/h 63 % 0 mm
23:28 9.2 °C 2.5 °C 1024.9 hPa WSW 8 km/h 11.1 km/h 63 % 0 mm
23:29 9.2 °C 2.5 °C 1016.8 hPa West 5.5 km/h 13 km/h 63 % 0 mm
23:33 9.2 °C 2.5 °C 1024.9 hPa SW 5.1 km/h 9.7 km/h 63 % 0 mm
23:38 9.2 °C 2.5 °C 1024.9 hPa SSW 3.5 km/h 6.4 km/h 63 % 0 mm
23:43 9.2 °C 2.5 °C 1024.9 hPa NW 6.3 km/h 14.8 km/h 63 % 0 mm
23:48 9.1 °C 2.4 °C 1025.3 hPa WSW 0.6 km/h 3.7 km/h 63 % 0 mm
23:53 9.1 °C 2.4 °C 1025.3 hPa WSW 5 km/h 11.1 km/h 63 % 0 mm
23:58 9.1 °C 2.4 °C 1025.3 hPa West 2.1 km/h 11.3 km/h 63 % 0 mm
Crab Meadow Weather
Compliments of Weather Underground - 3 mb

Script developed by  Jim McMurry - jmcmurry@mwt.net Adapted for the template by  Wim van der Kuil - Leuven-Template.eu

Astronomy: Neptune has at least 11 moons.